Flugplatz Herzogenaurach

Für EDQH sind keine METAR/TAF Berichte vorhanden.
Es werden die Flugwettermeldungen vom Flugplatz Nuremberg in 17 km Entfernung angezeigt.

Bericht für EDDN

vom 25.10. um 17:20 UTC

Wind 6 kt aus 100°

Sichtweite 10 km oder mehr

gute Sicht, keine Wolken < 5000 ft, keine CB, keine Wettererscheinungen (CAVOK)

Temperatur 8.0°C

Taupunkt 6.0°C

Luftfeuchtigkeit 87%

Luftdruck 1020 hPa

keine wesentliche Wetteränderung innerhalb den nächsten 2 Stunden zu erwarten

EDDN 251720Z 10006KT CAVOK 08/06 Q1020 NOSIG

Prognose für EDDN

vom 25.10. um 11:00 UTC

Zwischen 12:00 UTC und 08:00 UTC

Wind 5 kt aus 120°

Sichtweite 10 km oder mehr

keine signifikanten Wettererscheinungen

keine Wolken


Am 26.10. zwischen 06:00 UTC und 10:00 UTC zeitweise

aufgebrochene Bewölkung in 1200 ft


Am 26.10. zwischen 08:00 und 10:00 UTC übergehend zu

Wind 5 kt aus 240°

Sichtweite 10 km oder mehr

keine signifikanten Wettererscheinungen

keine Wolken

TAF EDDN 251100Z 2512/2612 12005KT CAVOK TEMPO 2606/2610 BKN012 BECMG 2608/2610 24005KT
Impressum